| time (UTC) | temp F | wind direction | speed MPH | gust MPH | rain 1hr in | rain 24hr in | rain mn in | humidity % | barometer mb |
| 20260505230000 | 58 | 261 | 3.0 | 9.0 | 0.00 | 0.03 | 0.03 | 57 | 1010.9 |
| 20260505224459 | 55 | 293 | 2.0 | 6.0 | 0.00 | 0.03 | 0.03 | 69 | 1011.1 |
| 20260505222959 | 53 | 250 | 4.0 | 8.0 | 0.00 | 0.03 | 0.03 | 73 | 1011.3 |
| 20260505221459 | 53 | 258 | 10.0 | 17.0 | 0.00 | 0.03 | 0.03 | 75 | 1011.9 |
| 20260505220002 | 55 | 262 | 14.0 | 21.0 | 0.00 | 0.03 | 0.03 | 65 | 1011.9 |
| 20260505213001 | 58 | 236 | 8.0 | 13.0 | 0.00 | 0.03 | 0.03 | 57 | 1011.8 |
| 20260505211501 | 59 | 18 | 8.0 | 15.0 | 0.00 | 0.03 | 0.03 | 53 | 1011.8 |
| 20260505204500 | 58 | 22 | 6.0 | 15.0 | 0.00 | 0.03 | 0.03 | 57 | 1011.9 |
| 20260505201459 | 57 | 21 | 8.0 | 13.0 | 0.00 | 0.03 | 0.03 | 60 | 1012.4 |
| 20260505200001 | 55 | 22 | 7.0 | 12.0 | 0.01 | 0.03 | 0.03 | 64 | 1012.2 |
| 20260505194501 | 54 | 21 | 8.0 | 14.0 | 0.02 | 0.03 | 0.03 | 69 | 1012.5 |
| 20260505191501 | 53 | 19 | 7.0 | 10.0 | 0.02 | 0.03 | 0.03 | 79 | 1012.6 |
| 20260505190000 | 53 | 18 | 10.0 | 15.0 | 0.01 | 0.02 | 0.02 | 74 | 1013.0 |
| 20260505183000 | 58 | 234 | 7.0 | 11.0 | 0.00 | 0.01 | 0.01 | 54 | 1012.5 |
| 20260505181459 | 59 | 284 | 7.0 | 12.0 | 0.00 | 0.01 | 0.01 | 53 | 1012.6 |
| 20260505174500 | 59 | 269 | 3.0 | 10.0 | 0.00 | 0.01 | 0.01 | 51 | 1012.8 |
| 20260505173001 | 58 | 244 | 2.0 | 7.0 | 0.00 | 0.01 | 0.01 | 54 | 1012.8 |
| 20260505171500 | 56 | 73 | 3.0 | 8.0 | 0.00 | 0.01 | 0.01 | 57 | 1012.8 |
| 20260505170001 | 55 | 251 | 4.0 | 8.0 | 0.00 | 0.01 | 0.01 | 58 | 1013.1 |
| 20260505164459 | 54 | 271 | 6.0 | 10.0 | 0.00 | 0.01 | 0.01 | 62 | 1013.0 |
| 20260505161459 | 52 | 300 | 5.0 | 9.0 | 0.00 | 0.01 | 0.01 | 64 | 1013.3 |
| 20260505152958 | 52 | 338 | 5.0 | 12.0 | 0.01 | 0.01 | 0.01 | 65 | 1013.7 |
| 20260505151458 | 51 | 264 | 5.0 | 11.0 | 0.01 | 0.01 | 0.01 | 68 | 1013.6 |
| 20260505124458 | 56 | 312 | 4.0 | 9.0 | 0.00 | 0.00 | 0.00 | 45 | 1012.6 |
| 20260505122958 | 56 | 268 | 3.0 | 6.0 | 0.00 | 0.00 | 0.00 | 46 | 1012.8 |
| 20260505121459 | 56 | 267 | 3.0 | 6.0 | 0.00 | 0.00 | 0.00 | 45 | 1013.1 |
| 20260505120001 | 56 | 254 | 5.0 | 6.0 | 0.00 | 0.00 | 0.00 | 44 | 1012.7 |
| 20260505114458 | 56 | 225 | 4.0 | 5.0 | 0.00 | 0.00 | 0.00 | 42 | 1012.6 |
| 20260505112958 | 56 | 219 | 5.0 | 7.0 | 0.00 | 0.00 | 0.00 | 41 | 1012.6 |
| 20260505111459 | 56 | 239 | 5.0 | 8.0 | 0.00 | 0.00 | 0.00 | 40 | 1012.5 |
| 20260505101458 | 57 | 257 | 9.0 | 15.0 | 0.00 | 0.00 | 0.00 | 35 | 1012.5 |
| 20260505100000 | 57 | 229 | 8.0 | 12.0 | 0.00 | 0.00 | 0.00 | 35 | 1012.5 |
| 20260505094458 | 57 | 244 | 7.0 | 10.0 | 0.00 | 0.00 | 0.00 | 35 | 1012.5 |
| 20260505092959 | 57 | 238 | 7.0 | 11.0 | 0.00 | 0.00 | 0.00 | 34 | 1012.5 |
| 20260505091458 | 58 | 227 | 7.0 | 11.0 | 0.00 | 0.00 | 0.00 | 34 | 1012.5 |
| 20260505085959 | 59 | 245 | 9.0 | 13.0 | 0.00 | 0.00 | 0.00 | 33 | 1013.1 |
| 20260505084458 | 59 | 255 | 9.0 | 15.0 | 0.00 | 0.00 | 0.00 | 32 | 1013.2 |
| 20260505082959 | 59 | 273 | 9.0 | 16.0 | 0.00 | 0.00 | 0.00 | 32 | 1013.6 |
| 20260505081458 | 60 | 262 | 10.0 | 15.0 | 0.00 | 0.00 | 0.00 | 32 | 1013.2 |
| 20260505080000 | 60 | 243 | 12.0 | 19.0 | 0.00 | 0.00 | 0.00 | 32 | 1013.2 |
| 20260505072959 | 61 | 240 | 10.0 | 16.0 | 0.00 | 0.00 | 0.00 | 32 | 1013.2 |
| 20260505071459 | 61 | 262 | 9.0 | 15.0 | 0.00 | 0.00 | 0.00 | 31 | 1013.2 |
| 20260505070002 | 61 | 244 | 9.0 | 15.0 | 0.00 | 0.00 | 0.00 | 30 | 1013.1 |
| 20260505064500 | 61 | 258 | 9.0 | 12.0 | 0.00 | 0.00 | 0.00 | 29 | 1013.1 |
| 20260505063001 | 62 | 216 | 11.0 | 20.0 | 0.00 | 0.00 | 0.00 | 28 | 1012.7 |
| 20260505061501 | 63 | 250 | 11.0 | 17.0 | 0.00 | 0.00 | 0.00 | 27 | 1013.1 |
| 20260505060006 | 63 | 261 | 12.0 | 17.0 | 0.00 | 0.00 | 0.00 | 26 | 1013.1 |
| 20260505054502 | 64 | 252 | 12.0 | 18.0 | 0.00 | 0.00 | 0.00 | 25 | 1013.0 |
| 20260505053001 | 64 | 240 | 12.0 | 17.0 | 0.00 | 0.00 | 0.00 | 25 | 1012.6 |
| 20260505051501 | 65 | 257 | 11.0 | 16.0 | 0.00 | 0.00 | 0.00 | 25 | 1012.6 |
| 20260505041501 | 66 | 241 | 9.0 | 14.0 | 0.00 | 0.00 | 0.00 | 23 | 1012.5 |
| 20260505040000 | 66 | 252 | 8.0 | 10.0 | 0.00 | 0.00 | 0.00 | 23 | 1012.5 |
| 20260505033001 | 67 | 257 | 10.0 | 14.0 | 0.00 | 0.00 | 0.00 | 23 | 1012.3 |
| 20260505031500 | 67 | 255 | 10.0 | 14.0 | 0.00 | 0.00 | 0.00 | 22 | 1012.0 |
| 20260505030000 | 68 | 239 | 9.0 | 14.0 | 0.00 | 0.00 | 0.00 | 21 | 1011.9 |
| 20260505024500 | 68 | 281 | 11.0 | 17.0 | 0.00 | 0.00 | 0.00 | 21 | 1011.8 |
| 20260505023000 | 69 | 288 | 12.0 | 20.0 | 0.00 | 0.00 | 0.00 | 20 | 1011.4 |
| 20260505021500 | 69 | 271 | 12.0 | 20.0 | 0.00 | 0.00 | 0.00 | 20 | 1011.3 |
| 20260505020001 | 69 | 281 | 12.0 | 21.0 | 0.00 | 0.00 | 0.00 | 20 | 1011.1 |
| 20260505014501 | 70 | 279 | 10.0 | 20.0 | 0.00 | 0.00 | 0.00 | 20 | 1011.0 |
| 20260505013000 | 70 | 271 | 10.0 | 18.0 | 0.00 | 0.00 | 0.00 | 20 | 1010.7 |
| 20260505010002 | 70 | 290 | 9.0 | 17.0 | 0.00 | 0.00 | 0.00 | 18 | 1010.7 |
| 20260505003000 | 71 | 273 | 7.0 | 14.0 | 0.00 | 0.00 | 0.00 | 17 | 1010.8 |
| 20260505001459 | 71 | 265 | 12.0 | 20.0 | 0.00 | 0.00 | 0.00 | 16 | 1011.1 |
| 20260505000000 | 71 | 258 | 13.0 | 22.0 | 0.00 | 0.00 | 0.00 | 15 | 1010.7 |
| 20260504233000 | 72 | 274 | 14.0 | 20.0 | 0.00 | 0.00 | 0.00 | 14 | 1010.9 |
| 20260504231500 | 72 | 284 | 16.0 | 26.0 | 0.00 | 0.00 | 0.00 | 14 | 1010.9 |